Lapse_Rate
7.1 6.9 5.1 5.5 5.5 5.1 4.6 4.2 4.5 4.7 4.7 5.2 5.5 5.5 6.1 6.3 6.0 4.9 5.0 4.9 4.6 5.9 6.5 7.2 7.2 6.7 6.7 6.1 6.5 6.1 6.3 6.3 6.5 6.5 6.5 6.5 6.5 6.5 6.5 6.5 6.5 6.5 6.5 6.5 6.5 6.5 6.5 6.2 6.6 6.5 6.3 5.6 6.3 7.0
6.6 5.3 5.2 5.3 5.7 5.8 5.6 5.4 5.4 5.4 5.3 5.2 5.3 5.6 6.1 5.9 5.8 4.6 4.7 4.6 4.3 4.9 6.0 6.1 6.6 6.4 6.3 5.1 4.3 5.2 5.9 6.3 5.8 6.5 6.5 6.5 6.5 6.5 6.5 6.5 6.5 6.5 6.5 6.5 6.5 6.5 6.3 6.2 6.0 5.5 5.7 6.3 6.6 7.1
6.0 5.9 5.5 5.6 5.8 6.7 6.6 6.6 6.5 6.6 6.7 6.9 6.6 6.4 5.9 5.9 6.3 5.0 4.3 4.0 4.0 4.8 5.6 5.7 6.0 5.7 5.5 5.2 4.6 4.8 4.7 4.9 4.5 3.6 5.4 6.4 6.5 6.5 6.5 6.5 6.5 6.5 6.4 6.5 6.5 6.5 6.5 5.9 5.7 5.5 5.9 6.5 6.8 6.0
6.4 6.2 6.2 6.3 6.3 6.3 6.2 6.3 6.3 6.3 6.5 6.6 6.7 6.8 6.9 7.1 6.9 5.4 3.6 1.9 2.5 3.3 5.5 5.9 5.5 5.5 5.1 5.0 5.0 4.7 3.9 3.5 3.1 3.2 3.4 6.5 6.5 5.7 6.5 6.5 6.5 6.1 6.4 6.5 6.5 6.5 6.4 6.6 6.2 5.7 6.2 6.1 6.9 7.0
5.8 6.1 6.4 6.3 6.5 6.6 6.6 6.8 7.0 7.2 7.3 7.4 7.5 7.3 6.9 6.2 5.4 3.6 2.1 1.6 2.0 3.3 5.5 5.3 4.3 4.8 4.8 4.5 4.4 4.1 4.1 3.5 3.4 4.0 6.1 6.5 5.8 6.2 6.2 6.5 6.5 5.9 6.5 6.5 6.5 6.2 6.1 6.2 6.2 6.2 5.8 6.5 6.6 7.0
6.3 6.6 7.0 7.5 7.9 7.9 7.4 7.1 7.0 6.6 7.0 7.6 7.3 6.8 6.0 5.2 4.0 2.7 2.7 3.3 1.8 1.1 1.7 6.4 3.6 5.0 4.7 4.4 4.2 4.1 3.5 3.0 3.4 2.7 4.2 4.0 4.6 4.9 6.5 6.5 6.2 5.2 5.5 5.9 6.3 6.5 6.5 6.2 5.7 6.0 5.9 5.9 6.0 6.3
7.2 7.6 8.3 8.0 7.0 7.0 6.7 6.6 6.8 6.8 6.8 6.7 6.4 6.0 5.7 5.0 2.3 2.4 4.2 4.1 2.7 0.9 1.5 6.2 6.3 4.5 4.6 4.3 2.9 3.0 3.7 3.4 3.5 2.9 3.7 4.9 4.8 5.3 6.5 6.5 6.5 6.2 6.5 6.5 6.8 5.8 5.9 6.0 6.3 6.4 5.7 5.9 6.1 6.1
8.1 7.5 7.0 6.7 6.5 6.4 6.5 6.7 6.8 6.8 6.7 6.6 6.3 5.8 5.2 4.8 4.2 3.6 3.3 4.4 2.4 1.4 2.8 6.5 6.5 5.3 4.3 4.0 4.0 2.7 3.4 3.8 3.2 4.0 4.3 6.1 5.4 5.5 6.5 6.5 6.2 6.1 5.6 5.5 5.5 5.7 6.3 6.4 6.1 5.5 5.6 5.8 5.4 5.1
7.2 7.0 6.8 6.6 6.5 6.4 6.3 6.4 6.5 6.5 6.2 5.8 5.5 5.1 3.0 1.6 3.3 4.6 5.5 3.9 1.6 1.6 3.7 5.4 6.5 6.5 3.8 4.0 3.9 3.7 3.9 6.5 4.7 6.5 6.4 5.5 6.5 6.5 6.5 6.2 5.5 5.5 5.6 5.6 5.8 5.7 5.4 5.0 5.5 5.4 5.3 5.7 5.3 4.5
6.6 6.5 6.4 6.3 6.1 6.0 5.8 5.8 5.7 5.6 5.4 5.0 2.6 1.5 2.8 4.5 6.0 5.3 3.1 2.8 2.2 2.3 4.2 6.4 5.2 6.5 4.5 3.5 3.7 3.3 6.3 6.5 6.5 6.4 5.5 6.5 6.5 6.0 5.1 5.7 5.6 6.0 6.4 6.3 6.7 6.1 6.5 6.3 6.0 5.6 5.6 6.3 6.5 6.1
6.7 6.5 6.4 6.2 6.1 6.0 5.8 5.6 5.4 5.1 4.4 1.4 2.5 6.3 4.6 5.2 3.9 2.3 2.2 4.2 3.6 6.7 4.7 5.6 5.3 6.3 4.7 6.3 6.5 4.7 6.5 6.5 6.5 6.5 6.5 6.5 6.5 6.3 6.1 5.7 6.0 6.0 5.7 6.6 7.1 6.8 6.8 6.6 6.7 6.6 6.4 6.5 6.8 6.8
7.1 6.9 6.7 6.5 6.3 6.2 6.2 5.9 5.1 2.4 1.8 3.3 3.4 4.0 3.3 2.3 2.4 6.1 6.5 6.4 6.5 6.5 5.8 6.1 5.4 4.4 4.7 4.3 5.7 5.2 6.5 6.5 6.5 6.3 6.5 6.5 6.5 6.8 6.5 5.8 5.9 5.6 6.3 7.2 7.0 6.5 6.1 6.5 6.5 6.1 6.2 6.4 6.3 5.9
7.2 7.2 7.3 7.1 6.8 6.7 6.3 5.9 5.3 4.8 3.9 2.3 2.3 1.8 2.4 5.3 6.5 6.5 6.5 6.5 6.5 5.5 4.5 5.8 6.3 4.6 5.3 6.1 6.2 6.5 6.5 6.5 5.9 6.5 6.5 6.5 6.8 6.8 6.7 6.4 6.4 5.9 6.3 6.9 6.6 6.0 5.8 5.7 5.5 5.2 4.8 4.3 4.4 5.2
6.8 6.9 7.2 7.4 7.0 6.9 6.5 6.4 5.8 4.0 2.2 1.8 2.6 6.5 6.5 6.5 6.5 6.5 6.5 6.4 3.8 4.0 3.7 4.3 6.5 6.5 4.6 6.5 6.4 6.5 6.5 6.5 6.5 6.5 6.5 6.5 6.7 6.7 6.5 6.6 6.5 6.1 5.9 6.1 5.8 5.6 5.2 5.1 5.1 4.9 4.6 4.2 4.6 4.5
7.1 6.2 6.2 6.5 7.3 7.4 6.9 6.3 5.3 2.3 2.5 3.1 2.8 6.5 6.5 4.1 3.2 1.9 1.8 2.7 2.4 2.2 1.7 4.4 5.9 5.7 6.5 6.5 6.5 6.5 6.5 6.5 6.5 6.5 6.5 6.6 6.6 6.4 6.0 7.0 7.1 6.4 4.9 4.9 5.8 5.2 4.9 4.6 5.0 5.2 4.0 3.1 4.0 2.3
7.1 7.0 7.0 7.3 7.2 7.1 6.5 5.2 3.4 2.5 2.8 4.4 4.7 5.5 4.3 4.6 3.3 -1.2 -0.8 0.7 2.3 2.0 5.5 6.3 6.5 6.5 6.5 6.5 6.5 6.5 6.5 6.5 6.5 6.5 6.6 6.2 6.9 6.5 6.8 7.0 7.2 7.0 6.3 6.1 5.6 5.5 5.2 5.1 4.7 5.3 4.4 3.7 2.4 3.0
6.4 5.0 7.6 7.5 7.1 6.4 6.0 3.4 3.0 4.5 4.5 5.9 3.5 1.3 1.1 0.7 1.7 -0.7 -0.1 1.9 3.2 5.9 6.5 6.5 6.5 6.5 6.5 6.5 6.5 6.5 6.5 6.5 6.5 6.4 6.1 6.4 6.9 6.5 6.3 7.2 7.2 7.3 7.1 6.6 7.2 7.2 6.2 4.4 3.6 4.8 4.5 4.1 4.1 3.7
3.8 6.1 7.4 7.1 5.9 4.9 3.6 3.2 3.3 4.7 6.5 4.4 5.3 0.7 0.0 0.1 -0.4 0.0 0.9 1.0 4.8 5.0 4.7 6.3 6.6 6.5 6.5 6.5 6.5 6.4 4.3 4.7 5.1 5.1 4.9 5.6 6.5 6.5 7.2 7.0 6.9 7.0 7.0 7.0 6.7 6.5 5.5 3.4 4.1 4.0 4.7 4.5 4.3 4.2
4.4 5.6 7.2 7.1 5.5 4.0 3.2 3.6 3.8 5.3 4.6 3.9 3.0 2.2 2.1 1.6 1.0 1.1 0.6 1.5 3.2 4.0 3.9 5.0 6.5 6.5 6.5 5.7 5.1 4.6 3.9 4.2 5.7 4.3 4.1 4.9 5.0 5.0 5.2 5.3 5.9 6.6 6.6 6.5 6.5 6.3 6.0 4.5 4.2 4.3 4.6 4.7 4.6 4.4
7.1 7.2 7.1 7.0 6.2 4.2 5.5 6.7 5.6 6.8 6.6 4.7 4.1 4.1 3.5 2.6 1.6 0.8 0.7 2.1 5.4 6.0 6.5 6.5 6.5 4.2 4.8 5.5 4.2 2.8 2.9 4.0 4.6 4.6 3.9 2.0 2.7 4.3 5.1 5.5 5.2 5.6 6.4 6.6 6.1 5.3 4.6 5.0 4.4 5.0 4.9 4.8 4.9 4.4
6.1 6.4 6.2 5.3 4.8 5.7 6.7 6.5 7.3 7.4 6.0 5.8 5.6 5.2 3.6 3.5 2.6 3.7 3.4 4.3 6.1 6.4 6.7 4.2 3.2 4.0 4.5 5.0 4.6 4.7 4.9 5.1 5.6 7.2 7.3 5.6 3.6 4.3 4.3 3.9 4.0 4.0 5.0 5.9 6.1 4.9 3.7 3.3 3.6 3.8 4.4 3.5 3.1 2.8
5.2 6.5 5.7 5.8 5.3 6.0 6.5 6.6 5.5 5.7 6.6 7.0 6.5 5.5 4.1 2.1 0.5 3.2 5.8 6.5 5.7 2.2 2.4 2.3 3.6 4.1 4.9 5.5 4.3 4.3 4.4 5.6 5.3 4.4 4.3 5.0 4.2 4.3 3.7 3.9 4.6 4.2 3.9 4.5 5.5 5.2 4.8 4.4 3.4 2.5 1.9 1.7 1.8 1.8
6.9 6.6 6.3 6.6 6.3 6.1 5.1 5.1 6.4 5.9 6.5 6.3 5.6 6.2 5.7 3.8 3.2 5.7 6.1 6.0 2.4 1.9 1.5 2.5 3.7 5.1 4.4 4.4 4.8 4.3 3.6 4.6 3.5 3.6 4.3 3.8 4.1 4.5 4.8 4.0 4.4 5.1 4.6 4.1 5.2 5.6 4.7 3.7 2.3 1.6 1.4 1.4 1.5 1.5
6.0 6.2 6.0 6.4 6.6 5.9 5.6 5.9 6.7 6.7 6.2 6.5 6.5 6.5 6.5 3.9 6.6 6.6 6.5 5.6 1.6 3.1 2.9 2.7 3.4 4.0 4.7 5.4 3.1 2.5 3.0 3.4 3.7 3.5 3.5 4.5 4.4 4.0 4.2 4.2 4.5 5.2 5.1 4.6 5.5 5.4 4.5 3.1 2.4 2.0 1.7 1.7 1.8 1.6
5.6 4.6 5.0 6.4 4.5 6.3 6.5 6.5 6.5 6.5 6.5 6.5 6.5 6.5 6.4 5.0 6.5 6.5 6.5 2.8 3.1 0.4 0.2 1.7 3.2 3.3 2.3 1.2 1.5 2.3 3.6 4.8 4.5 4.1 3.5 4.9 4.6 3.1 3.3 3.7 4.3 5.4 4.8 3.9 5.1 4.6 4.4 3.6 2.5 2.0 1.9 1.8 1.6 1.3
6.5 2.9 5.5 5.8 5.5 6.4 6.5 6.5 6.5 6.5 6.5 6.5 6.5 4.8 3.5 6.5 6.5 6.5 6.4 0.1 -1.4 -0.0 -2.6 -1.7 -0.2 1.7 2.5 3.6 3.3 2.9 3.3 4.9 5.4 4.2 3.5 4.8 5.3 4.3 3.7 3.8 3.8 4.8 4.6 3.9 5.0 4.5 4.1 3.5 2.8 2.3 1.9 1.9 1.8 1.5
6.5 6.5 6.0 5.6 5.8 6.0 5.8 3.9 6.3 6.3 6.5 6.5 6.5 6.5 6.5 6.5 6.5 6.4 0.5 -0.1 0.6 -0.3 0.5 0.7 1.7 2.8 3.0 3.1 3.4 3.1 3.6 4.1 4.1 4.2 3.6 4.8 5.3 4.8 4.0 2.5 3.2 4.0 4.5 4.5 5.1 4.6 3.9 3.1 2.6 2.1 1.8 2.1 2.2 2.2
4.8 5.2 6.5 4.4 4.2 4.7 6.5 6.5 6.5 6.5 6.5 5.4 5.4 6.5 6.5 6.5 6.5 0.7 0.7 -0.9 -0.9 0.6 0.9 1.6 2.0 1.9 2.6 1.2 -0.2 -0.6 0.1 0.5 1.2 3.2 3.9 4.3 4.1 3.7 3.6 3.5 3.2 4.3 3.5 4.5 4.4 3.5 2.9 2.7 2.9 2.7 2.5 2.2 2.1 2.5
4.0 5.0 3.9 6.2 2.6 4.0 4.8 6.3 6.3 3.8 3.4 4.2 6.4 6.5 5.9 1.5 -1.5 -1.4 -1.3 -1.8 -0.9 1.1 1.3 -0.3 -2.1 -3.0 -2.6 -3.3 -4.3 -3.1 -4.4 -3.1 0.6 0.0 0.1 -1.4 -1.2 1.3 1.7 0.3 -1.0 -0.3 0.4 3.0 5.0 3.9 3.4 3.0 2.7 2.5 2.4 2.1 2.0 2.1
2.2 4.7 2.8 4.1 6.5 6.5 2.9 2.5 1.4 -1.4 1.2 1.4 1.8 2.3 1.7 -0.4 -3.4 -4.7 -3.6 -1.4 -0.2 -0.8 -2.9 -4.6 -5.6 -2.3 -2.9 -2.5 -2.4 -2.1 -5.3 -7.1 -4.8 -1.4 -0.5 -0.1 0.5 -0.0 -1.4 -2.2 -2.6 -3.1 -1.3 1.1 2.3 3.3 4.0 2.7 2.5 1.8 1.6 1.5 1.2 0.9
3.6 2.7 2.0 3.5 5.2 1.8 -2.6 -5.2 -3.7 -2.4 -2.0 -1.5 -4.0 0.9 1.7 -1.9 -1.1 -4.4 -3.3 -3.8 -3.7 -4.8 -3.4 -5.0 -5.9 -9.3 -4.8 -6.4 -4.7 -4.1 -1.3 -4.1 -6.4 -4.6 -3.5 -1.7 -0.8 -0.4 -1.1 -2.2 -1.5 -3.8 -3.1 -1.2 0.1 0.7 2.3 2.4 2.3 2.3 2.1 1.4 0.8 0.0
-0.0 1.4 4.3 6.5 4.9 0.7 -0.1 0.2 -1.5 -0.1 -0.1 0.9 1.3 -3.0 1.1 1.6 2.2 -0.7 -4.2 -2.2 -1.7 -2.8 -3.9 -4.1 -3.8 -2.2 -3.9 -6.7 -7.0 -6.9 -2.9 -4.3 -5.0 -4.8 -3.3 -2.3 -1.2 -0.6 0.5 -1.5 -1.1 0.3 -1.5 -1.5 -0.1 1.0 2.4 2.3 2.1 2.0 1.5 0.4 -0.7 -1.5
2.0 -0.4 -1.8 -0.8 2.3 3.2 1.6 0.1 1.1 2.3 1.7 2.2 2.7 0.8 1.1 2.8 4.4 0.2 -3.8 -5.4 -1.7 0.4 -1.4 -2.6 -4.4 -7.7 -4.6 -3.9 -4.0 -5.2 -5.2 -6.1 -5.0 -1.7 -2.0 -1.6 -1.5 -1.0 -2.9 -4.0 -3.0 0.5 2.3 2.0 0.1 1.4 2.6 2.4 1.4 0.0 -1.2 -2.2 -3.7 -5.2
Wind_Speed
16 19 18 23 29 32 36 39 42 43 42 40 37 35 31 28 22 9 4 2 4 3 4 4 4 5 4 3 4 5 4 1 2 3 3 2 3 1 2 2 1 3 4 4 5 7 8 3 1 2 4 3 7 15
16 29 28 29 31 34 37 36 36 36 36 35 34 31 27 24 23 11 5 3 4 5 4 3 3 2 2 6 5 2 3 3 3 3 1 2 2 1 1 2 2 3 3 2 2 4 4 1 6 7 5 9 11 11
37 33 33 33 34 34 34 36 36 36 35 32 29 27 26 23 17 10 4 3 4 3 3 3 3 4 5 4 3 4 0 4 3 2 3 2 2 3 2 4 3 4 4 3 3 5 6 10 10 12 10 12 13 9
37 36 35 34 35 35 35 33 33 32 31 30 28 26 24 24 21 11 4 0 4 4 4 1 2 4 2 3 4 4 6 5 5 3 2 3 2 4 3 5 6 5 3 3 11 15 12 15 10 8 12 10 12 10
39 36 34 33 32 33 32 31 31 30 29 28 26 28 29 30 29 14 5 4 3 4 4 3 1 3 1 5 6 5 6 4 2 2 2 3 2 0 3 3 12 5 15 7 14 14 10 14 11 12 10 17 15 14
34 33 33 32 32 31 30 30 29 29 27 28 28 28 24 18 12 4 4 3 4 3 4 3 2 4 5 3 5 4 4 3 3 4 3 2 3 4 3 4 5 8 11 15 17 19 16 14 11 14 14 17 17 17
32 31 30 29 29 29 28 28 27 27 28 27 26 26 26 23 7 4 3 2 4 3 3 3 2 3 3 3 2 3 2 2 3 2 2 4 4 5 4 13 21 13 13 15 16 11 10 14 12 14 11 14 14 13
30 29 28 28 27 27 27 27 27 28 29 30 28 24 22 19 10 6 5 8 6 4 3 3 1 3 5 2 2 1 2 1 1 3 0 3 1 3 5 14 14 10 9 12 15 16 15 16 16 15 14 9 8 7
26 26 26 26 26 26 27 27 27 26 24 22 18 15 7 6 4 1 3 14 8 4 3 2 3 2 4 2 1 3 2 0 1 2 3 4 2 5 10 4 6 7 6 7 8 8 8 9 12 6 6 6 7 9
24 25 25 24 25 25 25 24 22 19 15 13 7 4 4 2 2 3 6 4 5 4 4 3 1 1 2 3 2 2 1 1 2 4 2 3 4 11 7 3 3 4 5 6 5 4 3 3 5 5 7 8 7 8
23 23 22 23 23 22 21 17 13 10 13 4 3 3 2 4 3 3 3 4 2 3 1 1 2 1 2 2 2 2 2 2 2 3 3 2 3 2 2 3 5 7 7 8 8 8 8 9 9 9 10 9 10 9
20 19 20 21 21 19 16 14 11 5 1 4 5 4 3 4 3 6 2 1 3 2 1 3 2 3 1 2 1 1 2 1 5 1 2 2 2 3 4 3 5 4 4 6 6 7 8 9 8 8 8 9 9 8
17 18 18 20 19 18 19 21 21 13 5 4 4 4 3 2 7 4 2 2 2 1 1 2 1 2 1 2 2 2 2 5 2 2 3 2 3 4 5 5 5 6 5 5 5 3 3 5 5 5 7 7 8 7
21 21 21 21 20 19 16 14 12 6 4 3 4 5 3 3 1 3 3 3 3 3 4 2 3 2 2 2 2 2 4 2 2 3 3 2 5 6 7 7 8 9 10 8 5 5 5 4 4 5 4 5 5 5
22 22 21 21 17 16 14 13 11 4 3 3 4 2 2 2 0 1 1 1 2 2 2 1 1 1 2 2 3 4 4 4 4 0 2 3 6 8 8 9 11 10 9 9 8 4 5 5 4 4 3 4 4 3
18 12 4 10 12 12 9 8 4 3 3 2 3 3 1 3 3 3 1 2 2 2 1 2 2 2 3 2 3 4 2 3 0 2 1 2 5 5 8 6 8 9 8 8 7 6 5 5 5 3 3 3 3 2
10 2 8 9 10 10 11 4 3 4 2 2 1 2 3 2 4 3 3 3 2 1 2 1 2 4 2 3 3 1 0 1 1 3 1 3 6 8 8 6 8 10 11 9 8 9 6 3 2 2 2 0 2 3
3 5 10 9 5 5 3 3 2 2 2 0 1 3 2 2 3 2 3 2 3 2 2 3 1 2 3 3 2 2 1 1 1 1 3 5 6 7 6 8 9 8 9 9 8 6 4 2 3 3 3 4 4 4
5 6 10 6 4 3 3 3 3 1 2 2 2 1 2 3 3 2 2 2 2 2 3 1 3 3 3 1 3 2 1 1 2 2 3 4 4 6 6 6 9 10 10 10 8 5 4 4 3 3 3 4 3 3
11 10 8 8 5 3 2 1 1 1 2 2 1 2 2 3 1 0 1 3 4 3 3 4 4 3 2 0 1 2 2 0 1 4 4 3 3 6 6 7 6 10 9 8 5 4 2 3 2 3 5 5 5 5
5 3 7 4 3 2 1 1 2 2 2 2 2 1 3 1 1 1 1 2 3 2 2 2 2 1 1 0 2 2 2 2 2 3 5 7 5 5 5 5 6 5 6 7 7 5 4 2 0 2 2 3 5 6
0 6 2 2 1 1 2 2 2 2 2 3 3 2 2 1 2 2 2 2 2 3 3 3 2 1 0 3 2 3 1 2 3 2 2 5 3 5 6 6 6 7 6 7 7 6 3 3 3 4 5 6 7 7
3 2 1 2 2 1 4 2 2 3 2 2 1 2 2 2 3 2 2 1 2 2 2 2 2 1 4 4 3 1 0 1 2 2 3 3 4 4 5 6 5 6 7 7 6 3 3 6 7 6 6 7 7 7
5 2 2 3 4 3 2 2 3 2 0 2 2 3 3 2 1 2 4 3 2 1 1 1 2 2 2 2 1 2 2 1 2 3 2 2 3 4 4 5 5 4 4 6 4 3 3 5 8 6 6 7 7 7
0 4 2 4 2 2 1 3 3 1 2 2 1 4 2 1 1 2 3 2 2 1 1 1 1 1 2 2 1 3 3 2 2 3 3 2 2 3 4 4 5 2 5 6 3 2 3 5 5 6 7 7 9 9
4 4 7 5 2 4 4 2 3 4 2 1 4 2 2 2 1 5 3 3 3 4 4 4 3 2 1 2 2 1 2 1 2 2 2 1 2 1 3 5 5 5 7 6 3 2 4 5 6 8 7 9 10 10
5 6 4 3 2 2 1 1 1 2 3 5 3 1 2 2 5 4 1 2 2 3 3 4 3 3 2 1 1 1 1 2 2 3 2 1 1 2 1 1 4 4 7 7 4 3 4 5 6 7 7 6 6 7
5 4 6 4 3 1 4 2 4 6 4 3 3 3 6 7 4 3 3 2 2 3 3 3 2 2 2 2 1 2 3 3 3 2 2 2 2 2 3 3 3 8 5 5 4 4 4 4 6 7 8 7 6 6
3 2 4 3 1 3 5 7 5 3 3 4 5 3 4 3 2 2 2 2 2 4 4 3 1 2 3 2 2 2 2 3 3 3 1 2 3 3 4 3 4 4 4 4 6 6 7 6 6 7 8 7 7 7
4 4 3 3 6 6 4 4 3 2 1 2 1 1 2 2 2 1 2 3 4 4 3 3 3 4 3 3 1 3 2 1 2 3 3 3 3 3 3 3 3 3 3 4 5 7 10 8 9 6 6 6 5 6
3 3 3 3 4 3 3 1 1 1 2 2 3 2 2 2 3 1 2 2 3 4 4 3 1 1 4 3 2 1 2 2 2 3 3 2 2 3 3 3 2 0 2 3 3 3 4 4 5 6 7 7 7 7
2 4 5 3 3 2 1 2 0 1 2 1 2 1 2 3 2 2 2 3 3 2 4 4 4 3 5 2 2 2 3 2 3 2 2 1 2 3 3 3 3 1 3 3 3 3 5 5 4 5 6 7 7 7
3 2 2 2 2 2 1 3 4 4 2 1 2 2 3 3 5 3 0 0 3 4 4 4 3 3 5 5 4 3 4 3 3 1 2 3 2 3 2 2 3 1 3 3 3 4 6 7 5 6 6 7 7 7
Wind_Direction
197 257 123 88 76 88 100 114 124 125 122 122 118 115 122 123 115 110 107 74 124 102 91 111 120 121 108 144 151 169 97 63 88 167 185 212 200 251 287 285 286 225 203 205 231 251 261 212 310 102 229 274 286 298
182 104 100 98 90 85 86 90 97 101 104 106 106 111 109 106 103 78 72 28 44 77 99 49 71 96 176 159 131 48 122 130 153 102 136 134 170 181 169 280 322 265 209 213 247 257 288 265 255 264 232 273 276 304
100 97 94 92 91 88 91 92 94 96 100 105 109 111 101 106 106 93 99 93 70 90 60 82 86 38 65 79 116 117 23 141 140 155 156 162 191 147 191 231 227 256 184 209 236 241 260 259 258 267 262 257 267 249
100 96 93 91 90 89 89 91 95 98 101 103 104 105 108 107 103 94 88 21 83 100 111 162 330 60 36 89 72 89 121 72 98 78 107 131 163 185 225 245 231 208 336 267 269 277 282 263 264 274 297 281 299 264
89 92 95 95 97 98 99 99 99 99 100 101 101 101 100 98 94 86 79 34 56 120 140 143 159 9 333 112 112 104 110 113 107 79 97 208 213 256 236 232 257 191 251 246 259 275 265 278 286 287 281 293 294 293
93 93 95 94 97 99 102 104 102 97 98 99 100 99 94 92 91 68 62 354 7 72 93 84 306 7 32 92 137 141 131 103 124 147 197 216 231 155 240 253 198 219 234 239 255 265 266 274 267 272 281 282 286 288
93 93 92 93 93 93 94 94 93 92 91 90 88 85 83 79 74 71 131 185 29 64 76 76 37 360 356 95 64 73 81 129 131 171 188 192 214 193 244 264 272 260 252 263 257 262 273 265 269 277 277 280 280 280
88 90 91 92 92 92 93 95 96 93 93 94 94 92 90 89 86 40 6 42 66 90 69 92 351 43 7 38 63 33 97 50 264 207 323 201 149 190 259 244 261 259 241 254 258 260 253 263 279 278 285 285 278 284
89 90 91 92 92 92 93 93 93 93 91 89 85 74 54 38 45 31 43 53 55 91 104 75 98 214 351 23 47 42 50 339 288 214 240 123 202 224 240 272 271 259 248 268 278 262 254 253 261 294 327 333 324 325
90 92 93 93 93 92 94 93 87 83 82 72 47 47 37 357 326 9 12 29 20 355 36 78 331 34 53 17 341 60 24 280 274 238 158 204 239 254 289 318 41 17 12 355 331 334 340 314 339 335 328 319 317 320
95 94 94 94 92 93 89 74 58 61 47 40 55 63 218 333 56 37 50 66 330 47 47 106 145 69 350 102 213 160 233 215 267 269 210 254 260 263 27 15 44 42 23 12 6 3 1 347 334 328 314 312 308 309
100 100 100 97 94 85 64 48 51 54 64 116 112 95 52 38 40 77 21 47 54 110 121 118 195 187 247 126 99 276 208 72 254 214 246 261 253 13 34 21 28 18 15 15 7 348 348 339 331 328 318 314 316 314
97 111 110 100 94 75 73 74 78 91 58 44 50 58 53 346 49 86 76 3 27 141 153 118 298 203 194 212 217 174 211 231 1 227 241 264 28 28 12 5 348 330 319 330 318 309 322 326 331 319 315 315 319 311
91 95 115 98 85 77 71 60 43 41 61 65 78 44 89 338 279 179 153 152 213 140 178 181 215 212 183 190 216 231 232 127 261 236 233 31 359 354 2 358 347 335 329 313 284 278 281 284 294 300 309 307 314 327
101 102 98 92 80 73 63 49 43 45 64 72 63 116 178 223 225 212 185 36 242 169 111 13 196 140 164 245 226 232 202 238 215 343 55 1 355 347 346 343 337 329 319 314 308 288 282 279 277 298 303 323 343 23
84 76 69 86 80 62 41 33 28 56 47 70 79 72 335 58 320 1 118 261 229 152 244 175 161 197 219 216 210 237 234 213 106 9 49 322 345 329 313 328 327 315 316 322 321 299 277 274 276 288 340 349 347 63
73 48 119 108 87 50 36 62 40 44 73 62 311 82 137 145 199 217 170 224 168 125 177 260 255 219 154 220 223 264 245 108 341 318 320 331 334 321 312 310 321 323 321 313 313 308 277 257 263 230 250 0 73 91
69 134 122 108 68 29 24 35 74 49 20 323 102 254 214 190 181 243 226 195 151 190 127 203 286 247 238 240 249 239 259 291 294 298 304 302 315 303 304 319 316 309 305 305 301 301 286 256 236 236 172 139 108 97
138 132 131 86 73 88 55 1 57 31 252 242 251 218 213 243 228 228 186 189 195 135 114 124 233 232 241 220 192 211 198 196 274 262 256 286 324 327 324 321 319 315 313 313 308 303 293 258 239 195 166 155 143 130
120 119 92 45 46 57 40 30 43 283 278 253 290 257 224 222 222 83 314 160 160 167 186 202 218 199 179 164 185 181 186 252 308 324 310 311 315 329 330 329 324 320 314 302 287 272 273 286 279 219 181 167 154 142
74 91 52 49 21 37 269 222 253 251 299 281 259 255 267 295 234 211 251 173 182 202 223 196 181 217 269 4 75 85 64 16 343 322 311 306 325 315 309 312 316 312 315 312 296 281 238 229 255 39 90 99 109 106
95 93 79 51 42 316 283 235 252 321 250 280 291 223 279 308 275 223 160 204 215 214 177 167 188 180 315 135 104 90 65 22 1 302 296 310 310 321 323 323 325 320 315 308 302 272 206 144 109 96 93 91 92 100
140 94 153 177 172 238 265 126 197 229 219 239 189 236 250 235 226 159 236 171 209 219 189 146 168 131 133 150 130 110 237 0 327 308 309 296 288 287 296 303 297 305 312 314 314 278 141 117 111 110 106 101 102 97
137 243 214 202 191 241 274 229 204 241 302 256 221 266 268 231 154 241 246 214 236 159 108 143 125 98 67 119 180 237 259 209 288 291 278 281 303 309 307 301 301 293 309 302 314 347 107 108 117 113 114 112 108 108
138 270 155 238 283 189 232 318 309 309 245 242 340 298 278 8 168 261 240 263 185 170 176 27 118 130 171 232 276 270 252 198 263 285 284 255 279 308 320 316 310 308 351 339 329 10 79 111 112 117 118 119 119 114
203 235 167 202 240 173 197 192 214 215 180 273 241 297 15 74 7 253 234 200 200 178 189 180 174 169 252 196 229 282 264 311 306 261 282 334 323 289 315 329 334 333 345 327 315 67 81 102 114 116 114 116 122 121
230 239 203 199 183 139 29 337 175 123 185 210 237 132 81 223 244 251 263 215 171 202 168 163 166 174 182 216 339 359 321 332 257 250 262 71 42 8 356 303 327 310 322 332 5 66 103 107 115 117 116 115 122 130
216 181 181 193 180 163 165 170 186 210 220 191 117 186 194 202 235 227 203 217 166 127 118 113 90 111 128 126 88 350 345 337 331 49 41 32 27 14 1 341 325 342 341 354 29 53 74 97 114 122 124 122 118 118
211 181 117 164 141 198 208 193 215 222 194 160 171 218 234 224 216 186 220 179 136 124 136 133 39 68 74 57 48 46 30 44 72 59 61 293 340 318 345 338 342 347 345 3 58 78 83 90 99 105 103 104 103 102
239 157 120 158 172 212 234 184 225 250 231 180 157 31 336 288 251 199 121 126 143 173 178 167 158 152 180 160 258 319 348 88 116 138 168 226 235 279 320 320 335 338 356 39 59 69 76 83 90 85 93 98 100 104
127 98 88 140 217 243 234 269 353 70 28 8 359 175 235 296 301 237 178 157 123 124 123 118 111 189 139 152 154 127 302 274 209 236 240 257 286 293 306 311 289 321 54 87 84 79 90 83 94 105 107 109 112 116
104 163 146 172 259 286 24 75 59 81 337 352 282 350 2 25 290 274 208 122 120 139 201 150 153 227 204 186 187 213 176 163 184 206 221 286 298 300 316 315 320 150 108 107 104 101 112 109 108 114 120 122 124 128
89 83 83 89 25 7 311 87 24 331 340 308 273 200 212 184 235 246 327 90 167 173 182 194 184 168 167 173 185 197 189 185 180 218 247 281 285 314 312 315 320 244 168 153 138 128 128 128 122 125 126 132 138 142